CAPE
1100 465 984 1474 1212 1209 1198 953 1002 853 608 512 660 552 491 400 577 755 845 961 866 652 548 657 789 920 757 841 723 643 457 277 351 392 278 689 632 714 837 779 579 574 547
30 5 10 1705 1760 1560 1556 1287 1121 1065 941 675 423 530 541 495 487 574 676 771 898 718 670 644 568 783 763 593 517 508 416 306 273 301 288 388 419 317 317 442 648 865 852
14 24 68 4 272 1417 2019 1767 1646 1433 1226 1001 884 722 536 526 537 446 468 561 618 681 654 611 699 682 605 634 649 426 327 472 553 404 318 370 439 421 552 552 679 694 900
243 596 635 1008 1011 596 903 1778 1881 1737 1596 1297 1206 1024 795 654 514 485 504 542 530 568 550 608 799 795 740 672 656 638 514 332 552 575 576 596 523 463 447 423 355 268 313
143 49 224 990 1167 1041 926 1096 1403 1755 1525 1480 1206 1118 1033 919 640 543 643 650 523 437 442 466 591 661 712 713 608 595 475 363 419 457 427 389 448 454 465 276 278 152 152
0 0 0 18 573 553 429 415 999 1297 1136 1236 1152 1071 1080 1041 795 643 766 703 598 511 392 347 434 611 659 643 678 696 664 464 415 365 439 486 380 348 244 175 72 49 61
0 0 0 0 0 0 9 108 267 411 536 911 844 867 930 979 798 686 618 721 671 625 482 457 408 657 669 510 851 705 591 515 533 463 533 455 378 197 107 96 118 119 104
0 0 0 0 4 0 0 0 4 58 101 648 236 191 111 3 0 35 188 502 576 589 522 429 419 403 444 189 400 383 463 490 418 439 388 536 329 203 120 160 127 146 195
0 0 0 0 4 150 5 0 0 0 0 50 399 35 29 7 0 0 0 197 445 643 720 755 677 584 525 459 488 365 382 362 285 154 208 220 174 132 117 155 223 237 124
0 0 0 0 0 0 130 17 0 0 0 26 32 143 38 39 0 0 0 2 3 32 130 432 625 755 650 388 387 433 435 297 337 267 141 138 175 255 157 250 225 254 45
0 0 0 0 0 0 0 149 20 0 0 0 135 290 422 140 0 0 0 2 0 4 146 379 455 461 462 369 202 409 515 487 420 343 179 196 130 70 24 7 24 70 73
0 0 0 0 0 0 0 18 74 34 0 0 35 64 139 96 68 0 0 0 11 47 68 369 506 446 370 257 33 144 347 430 518 296 279 336 254 113 70 12 0 0 0
0 0 0 0 0 0 0 0 0 0 3 1 45 23 43 82 0 0 0 0 0 0 0 3 1 1 14 226 244 125 9 107 345 423 390 432 204 157 74 0 0 0 0
0 0 0 0 0 0 0 0 0 16 33 60 2 31 179 93 18 0 0 0 0 0 0 0 0 0 0 3 154 83 24 120 348 481 482 468 154 135 124 3 0 0 0
0 0 0 0 0 0 0 3 5 18 79 87 98 386 342 284 51 0 0 0 0 0 0 0 0 0 0 0 26 80 60 66 243 377 386 274 248 222 136 20 0 0 0
0 0 0 0 0 0 0 0 0 2 3 13 49 51 332 431 295 20 0 0 0 0 0 0 0 0 0 16 50 109 44 58 170 244 176 187 274 226 143 49 0 0 0
0 0 0 0 0 0 0 0 0 0 0 0 0 0 2 3 0 0 0 0 0 0 0 0 0 0 0 0 0 91 67 8 71 77 93 126 183 90 47 31 14 14 0
0 0 0 0 1 0 0 0 0 0 0 0 0 0 0 0 0 0 0 0 0 0 0 0 0 0 4 5 10 39 86 31 10 34 53 102 135 75 30 12 0 12 0
5 6 2 1 2 0 0 0 0 0 0 0 0 0 0 0 0 0 0 0 1 1 1 0 0 0 0 51 67 29 22 12 33 36 32 39 28 26 15 0 0 1 0
2 5 4 2 5 5 0 0 0 0 0 0 0 0 0 0 0 0 0 0 1 2 0 0 0 0 0 36 9 0 6 21 6 22 27 55 17 10 17 0 0 5 1
4 4 5 3 7 11 0 0 0 0 0 0 0 0 0 0 0 0 0 0 0 1 0 0 0 1 2 64 41 8 44 17 1 22 26 6 0 0 0 1 8 7 31
3 3 5 16 31 27 6 0 0 0 0 0 0 0 0 0 0 0 1 0 0 0 0 0 0 0 1 55 36 22 26 26 42 47 2 0 0 0 0 1 9 31 29
3 2 1 30 45 48 22 6 0 0 0 0 0 0 0 0 0 0 0 0 0 0 0 0 11 46 38 35 27 26 32 51 54 12 22 10 0 6 9 18 28 43 22
3 3 0 28 51 52 34 1 0 0 0 0 0 0 0 0 0 0 0 0 0 0 0 14 47 73 21 30 43 69 83 40 1 50 92 55 34 29 46 45 61 57 38
3 4 1 6 22 33 8 0 0 0 0 0 0 0 18 93 78 31 8 2 10 16 26 90 100 126 130 112 85 65 72 12 44 89 64 63 34 46 49 51 71 53 35
4 4 5 2 1 0 0 0 0 3 6 0 62 250 452 381 323 179 81 106 63 49 43 90 151 168 133 124 141 117 30 0 30 69 116 86 49 47 48 62 38 14 10
CIN
-176 -363 -24 -88 -137 -137 -135 -126 -101 -117 -120 -85 -55 -49 -48 -68 -48 -37 -35 -37 -36 -46 -64 -50 -42 -48 -48 -47 -58 -61 -60 -71 -34 -45 -94 -64 -54 -61 -61 -75 -103 -49 -69
-400 -259 -196 -25 -46 -80 -109 -140 -104 -101 -124 -106 -96 -65 -49 -57 -55 -39 -39 -33 -38 -41 -52 -50 -61 -40 -44 -60 -68 -56 -50 -59 -51 -33 -60 -41 -36 -58 -72 -58 -53 -51 -51
-484 -517 -278 -292 -197 -63 -62 -101 -93 -93 -101 -117 -95 -75 -87 -72 -51 -60 -47 -38 -49 -43 -44 -45 -43 -40 -43 -46 -51 -69 -68 -59 -51 -50 -52 -72 -65 -72 -51 -56 -46 -47 -49
-236 -122 -117 -63 -131 -232 -174 -117 -87 -79 -84 -99 -96 -95 -90 -79 -79 -61 -47 -47 -47 -41 -41 -37 -32 -28 -35 -33 -33 -44 -44 -50 -47 -44 -42 -47 -64 -71 -83 -59 -49 -74 -57
-202 -286 -229 -123 -118 -171 -208 -172 -110 -41 -71 -87 -96 -99 -93 -78 -86 -78 -50 -48 -48 -49 -45 -47 -38 -42 -28 -32 -36 -42 -50 -38 -41 -37 -43 -69 -69 -68 -49 -66 -54 -73 -81
0 0 0 -373 -158 -202 -261 -231 -140 -52 -15 -55 -77 -86 -93 -84 -95 -86 -47 -40 -43 -47 -47 -47 -48 -39 -37 -35 -34 -42 -43 -34 -29 -32 -35 -41 -62 -61 -68 -53 -65 -85 -77
0 0 0 0 0 0 -163 -175 -222 -72 -58 -45 -28 -53 -65 -79 -102 -85 -74 -48 -45 -43 -44 -46 -57 -46 -41 -54 -33 -35 -48 -56 -37 -42 -38 -50 -55 -60 -64 -49 -61 -69 -81
0 0 0 0 -66 0 0 0 -131 -180 -160 -54 -144 -110 -13 0 0 -58 -113 -67 -55 -36 -33 -46 -57 -70 -74 -94 -56 -43 -34 -48 -61 -69 -76 -62 -75 -68 -74 -83 -73 -88 -95
0 0 0 0 -12 -62 -31 0 0 0 0 -221 -69 -119 -182 -9 0 0 0 -47 -47 -22 -18 -23 -33 -37 -58 -57 -35 -46 -54 -82 -108 -129 -113 -118 -135 -124 -98 -93 -76 -47 -73
0 0 0 0 0 0 -59 -118 0 0 0 -214 -200 -135 -164 -90 0 0 0 0 -186 -204 -154 -94 -58 -24 -35 -62 -47 -32 -42 -85 -80 -80 -113 -113 -110 -102 -139 -88 -65 -33 -86
0 0 0 0 0 0 0 -81 -149 0 0 0 -175 -83 -46 -48 -39 0 0 0 0 -149 -158 -137 -132 -103 -63 -51 -74 -42 -43 -51 -60 -55 -61 -63 -106 -162 -199 -128 -91 -94 -75
0 0 0 0 0 0 0 -202 -114 -141 0 0 -265 -250 -226 -175 -72 0 -35 0 -386 -296 -276 -127 -121 -153 -125 -91 -112 -68 -56 -59 -44 -55 -42 -49 -72 -120 -145 -200 0 0 0
0 0 0 0 0 0 0 0 0 0 -42 -20 -226 -284 -269 -257 0 0 0 0 0 -42 0 -438 -41 -43 -370 -165 -105 -116 -9 -122 -52 -37 -49 -62 -108 -95 -138 -14 0 0 0
0 0 0 0 0 0 0 0 -63 -257 -144 -120 -26 -126 -146 -186 -162 0 0 0 0 0 0 0 0 0 0 -72 -167 -155 -179 -127 -60 -47 -60 -71 -130 -123 -124 -117 0 0 0
0 0 0 0 0 0 0 -506 -444 -307 -133 -83 -67 -35 -62 -78 -206 0 0 0 0 0 0 0 0 0 0 0 -376 -199 -188 -151 -91 -90 -85 -98 -92 -95 -112 -181 0 0 0
0 0 0 0 0 0 0 0 0 -286 -364 -279 -165 -164 -63 -36 -66 -113 0 0 0 0 0 0 0 0 0 -288 -279 -238 -229 -174 -133 -119 -137 -132 -98 -88 -79 -122 0 0 0
0 0 0 0 0 0 0 0 0 0 0 0 0 0 -54 -4 0 0 0 0 0 0 0 0 0 0 0 0 -6 -285 -230 -233 -192 -164 -167 -147 -133 -140 -137 -152 -144 -132 0
0 0 0 0 0 0 0 0 0 0 0 0 0 0 0 0 0 0 0 0 0 0 0 0 0 0 0 -9 -261 -294 -250 -195 -195 -192 -188 -174 -144 -151 -173 -193 0 -94 0
-4 0 -1 0 0 0 0 0 0 0 0 0 0 0 0 0 0 0 0 0 0 0 0 0 0 0 0 -1 -59 -265 -226 -175 -213 -186 -166 -170 -191 -164 -179 0 0 -28 -44
0 0 0 -1 0 0 0 0 0 0 0 0 0 0 0 0 0 0 0 0 0 0 0 0 0 0 0 -3 -1 0 -100 -138 -189 -199 -155 -184 -209 -209 -131 0 0 -34 -42
0 0 0 -1 -3 0 0 0 0 0 0 0 0 0 0 0 0 0 0 0 0 0 0 0 0 0 0 0 -34 -111 -72 -97 -3 -146 -176 -227 0 0 0 -23 -39 -37 -33
0 0 -6 -7 -2 -12 -41 -13 0 0 0 0 0 0 0 0 0 0 0 0 0 0 0 0 0 0 0 -9 -24 -36 -60 -69 -97 -132 -175 0 0 0 0 -6 -30 -34 -47
0 0 -5 -3 -3 -16 -17 -34 0 0 0 0 0 0 0 0 0 0 0 0 0 0 0 0 -89 -34 -58 -61 -55 -89 -113 -99 -108 -117 -117 -90 0 -37 -29 -37 -39 -47 -47
0 0 0 -23 -15 -17 -65 -8 0 0 0 0 0 0 0 0 0 0 0 0 0 0 -72 -82 -105 -57 -59 -93 -103 -110 -90 -92 -5 -68 -52 -71 -119 -60 -55 -45 -45 -41 -29
0 0 0 -61 -20 -31 -40 0 0 0 0 0 0 0 -140 -141 -160 -175 -205 -38 -123 -103 -99 -107 -117 -91 -76 -85 -90 -80 -87 -79 -90 -80 -101 -92 -55 -54 -101 -50 -82 -42 -40
0 0 0 0 0 0 0 0 0 -42 -39 0 -96 -98 -79 -99 -99 -108 -130 -125 -129 -126 -113 -102 -127 -99 -96 -69 -66 -68 -126 0 -131 -89 -80 -67 -95 -124 -98 -78 -63 -48 -34
Wind_Speed
32 30 21 12 16 14 14 12 22 10 8 12 10 11 14 14 13 15 14 13 13 34 34 34 36 32 32 29 29 28 27 24 27 25 22 21 18 16 16 16 17 10 6
14 23 39 33 13 13 12 14 10 12 8 10 12 12 12 14 13 16 16 14 18 35 39 36 38 35 35 31 28 30 31 28 26 31 25 22 21 20 21 22 22 18 14
18 18 11 16 28 25 12 15 12 14 13 11 11 12 12 15 15 14 14 15 18 15 22 36 37 36 38 36 35 33 31 28 24 24 27 24 24 23 24 22 22 21 20
25 19 16 21 37 15 17 17 15 13 15 15 14 13 13 12 14 16 16 20 21 28 31 33 36 34 34 35 36 36 34 30 26 27 30 33 31 28 25 25 24 24 25
20 25 30 30 32 30 28 27 30 28 16 15 16 16 16 15 15 15 16 19 21 25 30 30 32 36 39 39 38 38 33 34 33 30 31 32 32 29 28 25 24 25 24
26 29 31 32 31 32 32 33 36 49 51 20 17 17 18 19 17 17 18 20 22 24 29 34 34 35 39 40 43 39 37 37 36 34 34 34 33 29 27 25 24 26 29
30 32 33 33 33 35 36 35 35 35 38 42 35 29 24 24 25 21 19 22 22 21 23 29 32 32 34 35 35 39 40 38 33 35 40 35 36 26 24 26 22 20 19
32 35 35 35 35 33 34 37 36 37 39 29 26 26 26 22 24 32 36 24 24 22 21 23 25 27 25 25 29 33 36 37 38 27 14 26 18 23 18 18 17 17 17
34 33 34 35 34 33 34 35 35 37 39 39 33 30 38 37 37 38 35 36 32 29 29 26 23 26 27 28 29 35 36 36 27 23 22 23 23 21 19 16 17 16 16
39 38 36 37 36 36 36 34 32 34 36 34 29 25 22 30 34 45 44 44 38 34 32 30 28 28 28 26 29 31 36 38 30 27 24 25 23 20 17 14 17 19 24
40 42 38 36 39 39 40 35 35 35 34 35 31 26 25 21 20 15 14 32 39 40 32 27 25 25 28 29 26 32 34 31 31 28 28 25 22 20 18 16 15 16 17
45 42 43 41 39 39 39 38 35 35 37 36 35 33 30 24 22 20 19 16 12 31 30 33 29 26 26 29 28 28 30 31 32 31 30 28 25 22 20 19 17 15 16
44 47 46 44 42 37 36 39 37 35 36 37 36 36 36 30 24 18 16 18 20 24 27 25 34 37 32 31 32 31 30 28 29 33 30 27 22 20 18 18 16 17 18
46 46 45 46 47 44 36 35 32 34 35 35 36 37 35 29 24 21 20 19 19 25 27 24 27 23 30 33 30 31 28 27 27 29 28 25 22 19 16 13 13 14 16
46 45 44 43 43 43 41 36 32 29 30 34 33 33 33 31 28 22 21 21 20 22 23 29 30 29 25 31 30 30 29 28 28 26 26 24 20 17 15 12 13 14 14
45 43 41 39 37 35 37 40 36 32 33 32 34 34 34 35 32 22 19 19 20 20 27 27 24 21 23 26 32 30 30 29 28 27 25 22 19 16 15 14 13 13 12
41 41 39 37 35 33 33 35 40 36 33 34 34 33 31 36 35 30 17 17 21 21 28 32 32 24 22 26 28 32 32 30 26 26 23 21 18 16 15 15 12 12 14
37 38 38 37 35 34 33 35 35 36 36 36 33 31 32 32 30 27 15 23 27 28 25 26 23 23 25 21 28 30 32 33 33 29 23 20 17 17 15 13 11 9 10
39 36 34 34 34 31 31 31 34 35 34 35 34 31 31 32 29 22 11 24 31 34 30 28 12 29 18 13 31 33 34 36 35 29 23 19 17 15 16 15 11 9 9
37 34 30 32 32 30 31 29 31 34 34 34 34 34 30 27 29 28 19 14 23 31 27 30 14 18 19 17 23 28 35 37 30 25 22 20 17 16 15 13 11 11 9
37 32 28 28 28 28 29 26 30 32 32 34 33 33 31 29 32 30 28 14 20 33 37 38 15 28 26 28 21 32 37 32 31 24 20 18 17 16 14 12 9 8 9
34 32 26 27 24 25 27 27 31 33 33 32 32 33 30 31 33 31 25 33 36 37 35 33 6 11 23 30 29 29 27 19 21 16 16 15 14 14 10 9 9 9 10
34 33 29 24 26 29 29 29 33 34 33 33 34 31 29 32 32 31 33 31 31 32 34 33 29 27 31 31 29 20 16 16 17 16 15 13 12 12 9 8 7 9 10
32 34 31 30 29 28 29 32 33 34 34 34 35 33 31 31 31 32 31 30 32 33 34 33 33 32 20 18 18 12 13 12 12 12 9 9 11 10 8 9 8 9 13
33 32 29 28 29 30 31 31 32 32 33 33 35 33 30 29 30 29 28 29 30 31 32 33 33 31 28 17 13 12 13 7 7 7 7 8 7 8 9 8 10 12 12
29 27 23 23 23 24 27 29 30 30 30 32 33 30 28 26 25 25 25 27 29 31 31 30 30 30 27 21 16 13 10 7 7 7 7 8 9 8 8 10 12 12 11
Wind_Direction
307 312 277 214 214 213 212 216 210 207 218 207 218 221 218 221 216 210 215 219 258 260 259 257 250 260 259 263 265 271 274 283 283 287 295 302 308 319 319 319 315 319 315
341 340 260 247 227 227 226 220 247 226 243 224 217 224 234 230 241 217 213 220 213 259 250 257 255 260 258 264 272 269 269 279 286 274 291 299 304 307 308 307 310 315 316
326 329 248 303 305 296 262 227 234 233 247 256 240 224 224 219 223 234 244 228 261 251 270 261 262 262 259 262 264 269 277 282 288 293 290 297 299 302 305 309 311 315 319
318 324 333 325 289 244 283 284 238 249 234 253 247 239 243 237 226 227 257 269 265 268 268 267 264 267 266 266 266 268 274 278 284 288 286 280 287 293 299 302 307 307 308
328 323 321 321 313 308 298 289 284 280 259 243 245 254 261 260 257 245 252 266 268 269 269 271 269 265 260 261 258 259 271 270 275 282 283 282 281 293 292 302 307 309 310
321 319 318 316 314 309 305 304 292 274 258 268 256 251 257 262 260 256 261 266 270 271 271 268 268 266 261 258 249 261 268 268 271 274 276 280 283 292 297 301 307 306 305
318 316 313 312 310 308 303 306 303 297 282 267 268 272 271 269 270 264 259 270 270 270 272 271 269 268 267 267 268 265 263 268 273 274 254 278 280 301 304 301 305 309 311
316 312 310 309 306 306 305 303 304 301 297 289 284 287 286 290 287 279 269 270 272 273 273 274 273 272 272 274 274 274 274 272 269 279 278 292 301 307 309 312 312 314 317
313 313 310 308 305 301 302 302 302 302 298 296 295 280 272 280 287 283 276 266 269 273 275 276 275 274 273 272 274 272 273 273 283 287 290 292 299 306 310 315 314 316 314
308 308 306 305 301 300 297 297 299 298 297 299 304 301 295 284 295 261 277 259 261 268 276 275 273 274 275 273 272 274 272 270 279 284 287 291 297 303 307 308 314 313 310
307 303 303 304 299 295 292 293 293 293 294 293 295 296 293 296 297 300 242 257 268 269 277 277 274 273 273 273 270 272 273 277 278 279 282 289 293 299 304 309 312 312 311
302 301 295 298 299 296 293 290 290 289 288 288 289 290 291 291 285 284 278 271 272 275 279 277 276 273 274 273 272 271 273 273 273 276 280 283 288 292 300 306 311 314 314
297 292 291 294 296 300 297 291 289 288 285 285 284 284 285 290 292 284 279 274 273 276 282 282 272 272 272 271 271 272 270 270 273 274 278 282 287 293 301 305 308 309 311
294 290 291 290 287 291 296 295 294 289 284 284 285 282 283 285 288 285 281 280 283 284 288 285 271 269 271 266 269 270 269 267 270 273 276 281 286 290 293 299 300 304 309
295 294 292 292 293 290 290 292 293 292 288 284 285 282 281 282 286 282 278 275 279 287 293 289 280 273 266 260 261 266 268 267 266 268 272 275 279 285 288 289 297 299 304
296 296 296 295 295 295 293 289 290 289 289 285 281 279 278 280 286 281 273 266 272 281 288 289 294 272 255 255 255 258 261 262 264 266 269 272 275 279 282 286 288 288 290
301 299 300 297 294 294 293 291 286 287 286 281 280 278 279 275 279 284 270 263 273 283 290 289 283 287 273 251 249 251 255 259 264 264 269 271 273 277 280 281 275 276 285
306 302 298 296 293 290 289 288 287 284 283 280 278 276 276 278 280 284 272 272 274 279 285 294 289 278 279 261 247 243 250 255 258 263 266 267 268 274 277 277 268 254 275
307 304 302 297 294 291 289 289 284 281 282 280 276 274 273 275 277 282 249 274 273 276 278 282 273 282 288 281 250 243 247 252 255 258 261 264 267 265 272 274 263 251 276
313 308 304 299 295 291 287 288 283 278 277 277 275 268 270 278 276 277 280 234 274 276 280 279 239 285 279 279 258 233 239 247 254 254 260 263 264 262 262 259 258 272 276
319 315 311 302 295 289 286 287 280 276 275 278 273 263 266 273 274 279 284 277 275 251 252 247 281 269 265 258 241 233 240 250 253 255 259 263 265 261 257 257 250 255 282
327 322 318 307 299 292 283 281 274 270 270 272 267 259 265 268 269 277 280 254 242 238 242 232 278 262 244 232 237 239 246 246 251 254 256 260 260 259 247 241 261 272 286
325 321 318 314 292 278 272 273 265 260 264 263 256 256 261 260 260 263 250 255 252 240 223 212 191 183 235 233 234 238 239 248 247 246 253 255 256 262 248 245 253 277 296
327 310 303 281 274 276 273 259 256 256 257 251 244 247 252 256 257 253 253 252 239 229 226 223 212 207 246 241 238 232 242 246 244 247 242 250 259 255 251 264 272 285 304
309 290 289 278 271 268 256 255 255 257 254 246 241 245 248 253 253 255 254 247 239 232 236 239 231 233 238 246 236 235 238 221 228 233 246 262 263 249 260 261 286 295 302
311 309 313 310 298 287 275 264 261 257 252 244 241 245 249 255 261 260 255 246 245 241 232 238 240 236 237 244 241 238 233 224 218 225 261 268 280 279 279 291 296 299 304